Location: Unspecified
(0.0000°N, 0.0000°E)
Time: 18:53:26
(UTC+00:00)

Altair - Visible Passes

Search period start: 18 April 2019 00:00
Search period end: 28 April 2019 00:00
Orbit: 1502 x 1682 km, 47.2° (Epoch: 17 April)

Date Brightness Start Highest point End Pass type
(mag) Time Alt. Az. Time Alt. Az. Time Alt. Az.
18 Apr 9.0 20:18:47 10° N 20:21:51 16° NNE 20:21:51 16° NNE visible
19 Apr 8.9 19:54:17 10° N 19:58:18 16° NE 19:58:18 16° NE visible
19 Apr 9.4 21:55:05 10° NW 21:56:19 15° NW 21:56:19 15° NW visible
20 Apr 8.9 19:29:58 10° NNE 19:34:19 14° NE 19:34:48 14° NE visible
20 Apr 9.0 21:29:58 10° NW 21:32:50 23° NW 21:32:50 23° NW visible
21 Apr 9.0 19:06:00 10° NNE 19:09:03 12° NE 19:11:21 11° ENE visible
21 Apr 8.5 21:04:53 10° NNW 21:09:24 34° NNW 21:09:24 34° NNW visible
22 Apr 8.0 20:39:50 10° NNW 20:46:00 46° N 20:46:00 46° N visible
23 Apr 7.6 20:14:48 10° NNW 20:22:40 55° NNE 20:22:40 55° NNE visible
23 Apr 9.7 22:20:42 10° WNW 22:20:43 10° WNW 22:20:43 10° WNW visible
24 Apr 7.5 19:49:48 10° NNW 19:58:36 51° NE 19:59:23 50° ENE visible
24 Apr 9.3 21:55:11 10° WNW 21:57:26 18° W 21:57:26 18° W visible
25 Apr 7.7 19:24:50 10° NNW 19:33:27 45° NE 19:36:07 37° E visible
25 Apr 8.9 21:29:44 10° WNW 21:34:11 27° W 21:34:11 27° W visible
26 Apr 7.9 18:59:55 10° NNW 19:08:19 40° NE 19:12:55 25° E visible
26 Apr 8.4 21:04:19 10° WNW 21:10:59 38° WSW 21:10:59 38° WSW visible
27 Apr 8.1 18:35:01 10° NNW 18:43:09 35° NE 18:49:44 15° ESE visible
27 Apr 8.0 20:38:57 10° WNW 20:47:35 46° SW 20:47:49 46° SW visible
